Location: Newark
(50.0306°N, 2.3272°E)
Time: 11:16:31
(UTC+00:00)

Transit 2A Rocket - Pass Details

Date: 12 December 2019
Orbit: 593 x 910 km, 66.7° (Epoch: 25 January)

Event Time Altitude Azimuth Distance (km) Brightness Sun altitude
Rises 21:44:45 0° 326° (NW) 2,844 - -54.4°
Reaches altitude 10° 21:47:56 10° 351° (N) 1,954 - -54.8°
Maximum altitude 21:50:23 15° 25° (NNE) 1,692 - -55.1°
Drops below altitude 10° 21:52:54 10° 60° (ENE) 2,002 - -55.4°
Sets 21:56:13 0° 84° (E) 2,960 - -55.8°
